GEFSSE_500_meanwind_078.txt.gz
Wind_Speed
5 5 6 6 5 4 4 4 4 4 4 3 3 3 3 4 4 5 5 6 6 6 6 7 7 8 8 9 9 8 8 7 7 7 6 5 5 5 6 7 8 9 9
5 6 7 6 5 4 3 3 3 3 2 1 2 2 3 4 4 5 6 6 6 6 6 7 7 7 8 8 8 7 6 6 6 6 5 5 5 5 5 7 7 8 8
6 6 7 6 5 4 3 3 2 1 0 1 2 3 4 5 5 6 7 7 7 7 7 7 7 7 7 7 7 6 5 5 5 4 4 4 4 4 4 6 7 7 8
6 7 8 7 6 4 4 3 2 2 2 2 3 4 5 6 7 7 8 8 8 8 8 8 8 7 7 6 6 5 4 4 4 3 3 3 3 3 4 5 6 7 8
8 8 8 7 5 4 4 3 3 3 4 4 5 6 6 7 8 9 10 10 9 9 9 9 8 8 8 7 6 4 4 3 3 2 1 1 1 2 3 4 6 7 8
9 9 8 7 5 5 4 4 4 4 5 5 6 7 8 9 10 11 11 12 12 11 11 10 10 10 9 8 7 5 4 4 3 3 2 1 1 2 3 4 5 7 7
11 10 8 6 5 5 4 4 5 6 7 7 8 9 10 11 12 13 13 13 13 13 13 13 12 11 10 10 9 7 6 5 4 4 3 3 3 3 4 5 6 6 7
11 10 8 6 5 5 5 6 6 7 8 10 11 12 12 14 14 15 15 15 15 15 15 14 14 13 12 11 10 9 8 7 6 5 4 4 5 5 5 6 6 7 8
11 9 7 6 6 6 7 7 8 9 10 11 12 13 14 14 15 16 16 17 17 17 16 16 16 15 14 13 12 11 10 9 8 7 6 6 6 6 7 7 8 8 9
11 9 7 7 7 7 8 9 10 11 11 12 13 14 14 15 15 16 17 17 17 17 17 17 17 16 15 14 14 13 12 11 10 9 8 8 8 8 8 9 10 10 10
12 10 8 8 7 8 9 9 10 11 12 13 14 14 14 15 15 16 16 16 16 16 17 18 18 18 17 16 15 14 14 13 12 10 10 10 9 9 10 11 12 12 12
13 10 9 8 8 8 9 10 11 12 12 13 13 13 13 13 14 14 15 15 16 16 16 17 18 18 17 16 15 14 14 14 13 12 12 11 11 11 11 12 13 14 15
14 11 10 9 8 8 9 10 11 11 12 12 12 12 13 13 14 14 15 15 15 15 16 16 17 17 17 16 15 15 14 15 15 14 14 14 14 13 13 14 15 15 16
14 12 11 9 7 8 9 9 10 11 11 11 12 12 13 13 13 14 14 14 14 14 15 15 16 16 16 16 15 15 15 15 16 16 16 15 16 15 15 16 17 17 17
14 11 9 6 6 6 7 7 8 9 9 10 11 11 11 12 12 13 13 13 13 13 14 14 14 14 15 15 15 15 15 15 15 16 16 16 16 17 16 17 18 20 19
13 10 8 6 5 5 5 6 7 7 8 9 10 10 10 11 11 12 12 12 12 12 12 13 13 13 13 14 14 14 14 15 15 15 16 17 17 17 17 17 18 19 20
12 10 8 6 5 5 4 5 6 7 7 8 8 9 9 10 10 11 11 11 11 11 11 11 11 12 12 13 13 13 13 14 14 15 16 17 17 17 18 18 18 20 21
11 10 8 7 5 5 4 5 5 6 6 7 7 8 8 9 9 10 11 11 11 11 11 11 11 11 11 12 12 13 13 14 14 14 15 17 17 18 18 19 19 19 20
11 10 9 7 6 5 5 5 5 5 5 6 6 7 8 9 9 10 10 10 10 10 11 11 11 11 11 12 12 12 13 14 14 14 15 16 17 18 19 19 20 20 20
12 11 10 8 7 6 5 4 3 3 4 5 6 7 8 9 9 9 9 9 9 9 10 10 11 11 12 12 12 12 13 13 14 15 15 16 17 18 19 20 21 21 22
13 11 10 8 7 6 4 3 2 3 4 5 6 7 7 7 8 8 8 9 9 10 10 10 11 12 12 13 13 13 13 13 14 14 15 16 17 18 19 20 21 22 23
13 12 10 9 8 6 4 3 2 2 3 4 6 6 7 7 8 8 9 9 10 10 10 11 11 12 12 13 13 13 13 14 14 15 15 16 17 18 19 20 22 23 24
14 12 9 9 7 6 4 3 2 1 2 4 4 5 6 6 7 8 8 9 10 11 11 12 12 13 13 14 14 14 15 15 15 15 16 17 17 18 19 20 22 23 25
12 11 10 10 8 6 5 4 3 2 2 3 3 4 5 6 7 7 8 9 11 12 12 13 13 13 14 14 15 16 16 16 17 17 17 18 18 19 20 21 22 24 25
10 10 11 10 8 6 5 5 3 2 2 3 3 4 5 5 6 8 9 10 11 12 13 14 14 15 15 16 16 17 18 18 19 19 20 20 20 21 22 23 23 24 26
9 9 10 9 8 7 6 5 4 3 3 3 4 4 5 6 7 8 9 11 12 13 14 15 16 16 17 17 18 18 19 19 20 21 22 22 23 23 24 25 26 27 27

GEFSSE_500_meanwind_084.txt.gz
Wind_Speed
10 9 8 8 7 7 7 6 5 5 4 4 4 4 4 4 4 4 4 3 3 3 3 3 3 4 4 5 5 5 5 5 5 5 4 4 4 6 7 8 8 9 8
11 10 9 8 7 7 7 7 6 5 4 3 3 2 2 1 1 1 2 2 2 2 2 2 2 2 3 3 3 3 3 3 4 4 3 3 4 5 7 7 7 8 8
11 10 9 8 8 8 8 7 6 6 5 4 3 2 1 1 1 1 2 2 2 2 2 2 2 2 2 2 2 1 1 2 2 3 3 3 4 5 6 6 7 7 7
11 10 9 8 8 8 8 8 7 6 5 4 4 3 3 3 3 3 3 3 3 3 3 2 2 2 2 2 1 1 0 1 1 2 2 3 3 4 5 5 6 7 7
12 10 9 8 8 8 8 8 7 6 5 5 4 4 4 4 4 4 4 4 4 4 4 4 3 3 3 3 2 1 1 2 2 2 3 3 3 4 5 5 6 7 7
12 10 9 9 9 9 9 8 7 6 5 5 5 6 6 6 6 6 6 6 6 6 6 5 5 5 4 3 3 3 3 3 3 3 4 4 4 4 5 6 7 7 7
12 11 10 10 10 10 9 8 7 6 6 6 6 6 6 6 7 7 7 8 8 8 8 7 7 6 5 5 5 5 5 5 5 5 5 5 6 6 6 7 8 8 8
13 12 11 11 10 10 8 8 7 7 6 6 6 6 7 7 7 8 8 9 9 9 9 9 8 8 7 7 6 6 6 6 7 7 7 7 7 7 8 7 8 9 9
14 12 12 11 11 10 9 8 7 7 7 7 7 7 7 8 8 8 8 9 9 8 8 9 9 8 8 8 7 7 8 8 8 8 8 8 9 9 9 9 9 10 10
15 14 13 12 11 10 9 8 8 8 8 7 8 8 8 8 8 8 9 9 8 8 8 9 9 9 10 10 10 9 9 10 10 10 10 10 10 10 10 10 11 11 11
16 15 14 12 12 11 10 9 9 9 8 8 8 8 8 8 8 8 9 9 9 9 9 9 8 9 9 10 10 10 9 10 11 11 12 11 11 11 11 11 12 12 13
17 16 15 14 13 12 11 10 9 8 8 8 8 7 7 7 8 9 9 9 9 9 9 8 8 8 9 9 10 10 10 10 11 12 12 12 12 12 12 13 12 14 15
19 18 16 15 14 13 12 11 9 8 8 7 7 7 6 7 7 8 8 8 8 8 8 8 8 8 9 9 9 10 11 11 11 12 13 14 14 13 14 14 14 15 16
20 20 18 16 15 14 12 11 9 8 7 6 6 6 6 6 6 7 7 7 8 8 8 8 8 8 8 9 9 10 11 11 12 12 13 15 15 15 15 15 15 16 17
21 20 17 16 14 13 12 11 9 7 6 5 5 5 5 6 6 6 7 7 7 7 7 7 7 7 7 7 8 10 10 10 11 12 13 15 16 16 16 16 16 16 16
19 20 18 16 13 12 11 9 7 6 5 4 4 4 4 5 5 5 5 6 6 6 6 6 6 6 6 6 7 8 9 9 10 11 12 14 16 17 17 17 17 17 17
19 19 19 16 14 12 11 9 7 6 5 4 3 3 3 4 4 4 5 5 5 5 6 6 6 5 5 6 6 6 7 8 9 10 10 12 14 16 17 18 18 18 19
19 20 19 16 14 13 11 9 7 5 4 3 3 2 2 3 3 4 4 5 5 5 5 6 6 5 6 6 6 6 7 8 8 9 10 11 13 15 16 17 18 18 19
19 19 18 17 15 13 11 9 7 5 4 3 2 1 2 2 3 3 4 4 5 5 5 5 6 5 5 5 6 6 7 8 8 9 10 11 12 14 15 16 17 17 18
19 19 19 17 15 13 11 8 7 5 4 3 2 1 1 1 2 3 4 4 5 5 5 5 6 6 6 6 6 6 6 8 8 9 10 11 13 14 14 15 16 16 17
20 19 19 16 15 13 10 9 7 6 4 3 2 1 0 1 2 2 3 4 5 5 6 6 6 6 6 6 6 6 7 7 8 9 10 11 12 13 14 15 16 17 17
18 19 19 17 15 13 11 9 8 6 5 4 3 2 1 1 2 2 3 4 5 6 6 6 6 6 7 7 7 7 7 8 8 9 10 11 12 13 14 15 16 17 18
17 18 18 15 15 13 11 10 8 7 5 4 4 3 2 1 2 2 2 4 5 5 6 6 7 7 7 8 8 8 8 8 9 10 11 11 13 14 15 16 17 18 19
17 17 17 16 14 13 12 10 9 8 6 5 4 3 2 1 1 1 1 3 4 5 5 6 7 7 8 9 9 9 10 10 11 11 12 13 13 14 16 17 18 19 19
16 16 16 15 14 13 11 11 9 8 7 6 5 4 3 2 2 1 1 2 3 4 5 6 7 9 10 11 11 11 11 12 12 12 13 14 14 15 16 17 18 19 21
15 15 15 15 14 13 12 11 10 9 8 6 6 5 5 4 4 4 3 4 4 5 6 7 8 10 11 12 13 13 13 13 14 14 14 15 15 15 17 18 19 20 21

GEFSSE_500_meanwind_090.txt.gz
Wind_Speed
12 11 10 9 8 7 6 6 5 4 4 3 3 3 2 2 2 1 1 1 0 1 1 1 2 3 3 3 3 3 3 4 4 4 4 4 4 5 6 7 7 7 7
12 13 11 11 9 8 7 6 5 5 5 5 4 4 4 3 3 3 2 2 2 2 1 1 1 2 3 2 2 2 2 2 3 3 3 3 4 5 5 6 6 6 6
13 13 12 11 10 8 7 7 6 6 5 5 5 5 5 4 4 4 4 3 3 3 3 2 2 2 3 3 2 2 1 1 1 2 2 3 3 4 5 5 6 6 6
13 13 12 11 10 9 8 7 7 6 6 6 6 6 5 5 5 5 5 4 4 4 4 4 3 3 3 3 3 3 2 2 1 0 1 2 3 4 4 5 5 5 5
14 13 13 11 10 10 8 8 7 7 7 6 6 6 6 6 6 6 6 6 5 5 5 5 5 5 5 5 4 4 4 3 2 2 2 2 3 3 4 4 4 5 4
15 15 13 11 10 9 9 8 8 8 7 7 7 7 7 7 7 7 8 7 7 7 7 7 7 7 6 6 6 6 5 5 4 4 4 3 3 3 3 4 4 5 4
15 14 14 12 11 10 9 9 9 8 8 8 8 8 8 8 8 8 8 8 8 9 9 9 8 8 8 8 8 8 7 7 7 6 6 5 5 4 4 4 5 5 5
15 15 15 13 11 10 9 9 9 9 9 9 9 9 9 9 9 8 8 9 9 8 9 9 8 9 9 8 8 9 8 8 8 8 7 7 6 6 5 5 5 6 6
16 16 15 14 12 11 10 10 10 9 10 10 10 10 10 9 9 9 9 9 8 8 8 8 9 9 10 10 10 10 10 9 9 9 9 9 8 7 7 7 7 7 8
16 16 15 14 13 12 11 10 10 10 11 11 10 10 10 10 9 9 9 9 8 8 8 8 9 9 10 11 11 11 11 11 10 11 11 10 10 9 8 8 8 8 9
16 17 17 15 14 13 12 11 11 11 11 11 11 10 10 10 10 9 8 8 8 8 8 8 8 9 9 10 11 11 11 11 11 12 12 10 10 11 10 9 9 10 11
19 18 17 16 15 13 12 12 12 12 11 11 11 10 10 10 8 8 8 8 8 8 8 8 8 8 9 9 10 11 12 11 11 11 12 12 12 12 12 11 10 11 11
18 19 19 17 15 14 13 12 11 11 11 10 10 10 9 8 7 6 7 6 6 7 7 7 8 8 7 8 9 10 11 11 11 12 12 12 12 13 13 13 12 12 12
18 18 18 17 15 14 13 12 11 10 10 9 9 8 7 6 6 6 6 6 6 6 6 6 6 6 6 7 8 8 9 11 10 10 11 11 13 13 14 13 13 13 12
19 18 17 17 16 15 13 12 11 10 9 9 8 6 6 6 6 6 5 5 5 5 6 6 5 5 5 6 6 7 8 9 10 8 10 11 12 13 14 15 13 13 13
18 18 17 15 15 14 12 12 10 9 8 7 7 6 5 4 4 4 4 5 5 5 4 4 5 5 5 5 5 6 7 7 8 9 9 10 11 11 13 14 14 13 14
19 18 18 16 15 14 12 11 9 8 7 6 6 4 3 3 3 3 4 4 4 4 4 4 4 4 4 4 4 4 5 6 7 8 8 9 9 10 11 12 14 14 14
18 17 17 16 15 14 12 11 9 8 6 5 4 4 3 2 2 3 3 3 3 3 4 4 4 4 4 4 4 4 4 5 6 6 7 8 8 9 10 11 13 14 14
17 17 17 17 16 14 13 11 9 7 6 5 4 3 2 1 1 2 2 2 3 4 4 4 4 4 4 5 4 4 4 5 6 7 7 7 8 9 9 10 11 13 14
15 15 15 15 14 13 12 11 9 8 7 6 4 3 2 1 0 1 2 2 3 4 4 4 5 5 5 5 5 5 5 5 5 6 7 8 8 8 9 10 11 11 12
14 15 15 15 14 13 11 10 10 9 7 6 5 3 2 1 1 1 2 3 4 4 5 5 6 6 6 6 6 6 6 6 6 7 7 8 8 9 9 10 11 11 11
13 14 16 15 13 13 11 10 10 9 8 7 5 4 3 3 2 2 2 3 4 5 5 6 6 7 8 8 8 8 7 7 7 7 7 8 8 9 9 10 11 11 11
11 12 14 14 14 14 12 11 9 8 8 7 6 5 4 4 2 2 1 2 3 4 5 6 6 7 8 8 9 8 8 9 9 9 9 9 9 9 10 10 11 11 12
9 11 13 14 14 14 12 11 10 9 8 8 7 6 5 4 3 2 1 1 1 2 3 4 5 7 8 8 9 9 10 10 10 9 9 10 10 10 11 11 11 11 12
8 10 11 13 14 13 12 11 11 11 9 9 8 7 6 5 4 3 2 1 1 2 3 5 6 7 8 9 9 10 11 11 11 11 11 11 11 11 12 12 12 12 13
8 9 11 12 13 12 11 11 12 11 10 10 9 8 7 6 5 4 4 3 3 4 5 6 7 9 9 10 10 11 12 13 13 13 13 12 12 12 13 14 14 14 14

GEFSSE_500_meanwind_096.txt.gz
Wind_Speed
8 8 7 7 6 5 4 3 2 2 3 3 3 4 4 4 4 4 5 5 5 5 5 5 4 4 4 3 3 3 2 2 3 3 3 4 5 6 6 7 8 8 9
8 8 8 8 7 6 5 4 3 4 4 4 4 5 5 5 6 6 6 6 6 6 6 6 5 5 4 4 3 3 2 1 2 2 3 4 5 6 6 7 7 8 8
9 9 10 10 9 7 6 5 4 5 5 5 5 5 6 6 6 7 7 7 7 7 7 7 6 6 6 5 4 3 2 1 0 2 3 4 5 6 6 7 7 7 7
12 11 10 11 10 9 7 6 6 5 5 5 5 6 6 7 7 7 8 8 8 8 8 8 8 7 7 6 5 4 3 2 1 1 2 3 4 5 6 7 7 6 6
12 12 12 12 11 10 8 8 7 6 6 6 6 6 7 8 8 8 8 9 9 9 9 9 9 8 8 7 6 5 4 3 3 3 2 3 4 5 5 6 6 6 6
12 13 13 13 12 11 10 9 8 7 6 6 6 7 8 8 9 9 9 10 10 10 10 10 10 10 9 9 8 7 6 5 5 4 4 4 5 5 6 6 6 6 5
11 13 15 15 13 12 10 9 8 7 6 6 7 8 8 9 9 9 10 10 10 10 11 11 11 10 10 10 9 8 7 6 7 6 5 5 6 6 6 6 6 6 6
12 13 15 16 14 13 12 9 8 7 7 7 8 9 9 9 10 10 10 10 10 10 10 10 10 10 9 9 9 9 8 7 7 7 7 6 6 6 6 6 6 7 6
13 13 14 16 15 14 12 10 9 8 8 8 9 9 9 10 10 10 10 10 10 10 10 10 10 10 10 10 9 9 9 8 8 8 8 8 8 7 8 7 7 7 7
12 13 14 15 16 15 13 11 10 9 8 9 9 9 10 10 10 10 10 10 10 10 10 10 10 10 10 10 10 9 8 9 9 10 10 9 9 8 8 8 7 7 7
13 14 15 15 16 15 14 12 10 10 9 9 9 9 10 10 10 9 9 9 9 9 9 9 9 10 10 10 10 9 8 9 10 10 10 9 10 9 9 9 8 8 8
12 13 14 16 16 16 15 12 11 10 10 9 9 9 9 9 9 9 8 7 8 8 8 9 9 9 9 9 9 8 8 9 10 9 9 9 10 9 9 9 8 9 8
13 13 14 15 16 16 16 14 13 11 10 10 9 9 8 8 8 7 7 7 7 7 7 7 8 8 8 8 8 7 6 7 9 9 8 8 9 10 9 9 8 9 8
12 13 14 16 16 16 16 16 14 11 10 9 9 7 6 6 6 6 6 5 5 6 6 6 6 7 8 8 7 6 5 6 7 8 8 7 8 8 9 9 9 9 9
11 13 14 16 15 15 15 15 13 10 9 8 7 6 6 5 5 5 4 5 5 5 5 5 5 6 6 6 6 5 4 4 5 6 7 7 6 8 9 9 10 10 10
10 12 13 13 14 13 13 13 12 10 8 8 7 7 6 5 4 4 3 3 3 4 4 4 3 4 5 5 5 4 4 4 4 5 5 6 6 6 7 9 9 10 9
10 12 12 11 12 12 12 12 11 10 9 8 7 7 6 5 4 3 2 1 1 1 1 1 1 2 3 3 3 3 2 2 2 3 4 5 6 6 7 7 8 9 10
10 11 10 11 12 12 12 12 11 10 9 8 7 7 6 5 4 3 2 2 1 1 1 1 1 1 2 2 3 3 2 2 2 2 2 3 4 5 6 7 7 8 9
11 11 11 12 13 13 13 12 11 10 9 8 8 7 6 5 4 3 3 3 2 2 2 2 2 2 2 3 4 3 3 2 1 1 2 2 3 3 4 6 7 7 8
11 12 11 12 13 13 13 13 12 11 10 8 8 7 6 6 5 4 4 4 3 3 3 3 3 3 4 4 4 5 5 4 3 2 1 1 1 2 3 4 5 6 7
9 11 12 12 13 13 13 13 12 11 10 9 9 8 7 7 6 6 5 5 4 4 4 5 5 5 5 5 5 5 5 5 5 4 3 2 1 2 2 3 4 5 6
7 10 13 12 12 13 13 13 12 12 11 10 10 9 8 8 7 7 6 6 5 5 5 5 5 5 6 6 6 6 6 6 6 5 4 3 3 2 2 3 3 4 5
7 10 11 11 12 13 13 13 13 13 12 11 11 10 10 9 8 8 7 6 6 5 4 4 4 4 4 5 5 5 5 6 6 6 5 4 4 3 2 2 3 4 5
7 8 10 11 11 13 13 13 13 14 13 13 12 12 11 10 9 9 8 7 6 5 4 3 2 3 3 4 4 4 5 5 5 6 6 5 4 4 3 3 3 4 5
5 7 9 10 11 12 13 13 13 14 14 14 14 13 12 11 10 9 8 8 7 6 4 3 1 1 1 2 3 4 4 4 4 5 5 5 5 4 4 4 4 5 5
3 5 8 10 11 11 13 14 14 14 15 15 15 14 13 12 11 10 9 9 8 7 5 4 3 2 2 3 3 4 4 5 5 5 5 5 6 6 6 6 6 6 6

GEFSSE_500_meanwind_102.txt.gz
Wind_Speed
6 7 8 8 8 7 7 6 6 5 4 4 3 3 3 4 5 6 6 7 8 8 8 8 8 8 7 7 6 6 5 4 4 4 4 4 5 6 7 8 8 8 9
7 8 9 10 9 8 7 6 5 4 3 2 2 2 3 4 5 6 7 7 8 8 8 8 8 8 8 7 6 5 5 4 4 4 4 4 5 6 7 7 8 8 9
9 10 11 11 11 10 8 7 6 4 3 1 1 2 3 4 5 6 7 8 8 8 9 9 9 8 8 7 6 5 4 3 3 3 3 3 4 5 6 7 7 7 8
11 12 13 13 12 11 9 8 6 5 3 2 0 1 3 4 5 6 7 8 9 9 9 9 9 8 8 7 6 5 4 3 2 2 2 2 3 4 5 6 6 7 7
11 13 15 14 13 12 10 9 7 5 4 2 1 2 3 4 5 7 8 9 9 9 9 9 9 8 8 7 6 5 4 3 2 1 1 1 2 4 5 5 6 6 6
11 13 15 16 15 13 11 9 7 6 4 3 2 3 4 5 6 7 9 9 9 9 9 9 9 8 7 6 6 5 4 3 2 1 1 1 2 3 4 5 5 6 6
11 13 14 15 16 15 13 10 8 7 5 4 3 3 4 5 6 7 9 9 9 9 9 9 8 7 7 6 6 5 4 3 2 2 2 2 3 3 4 4 5 5 5
11 14 15 16 16 15 13 12 10 8 7 5 5 4 5 5 6 8 9 9 9 9 8 8 8 7 7 6 6 5 4 4 3 3 3 3 4 4 4 4 4 5 5
13 15 15 15 15 15 14 13 11 9 8 6 6 5 5 6 7 8 9 9 9 8 8 8 8 7 6 6 6 5 5 4 4 3 4 4 5 5 6 6 5 6 6
14 15 15 15 15 15 15 14 12 10 9 7 6 6 6 6 7 8 9 9 9 8 8 7 6 6 6 6 5 5 5 5 5 4 5 5 6 6 7 7 7 7 7
13 14 15 15 15 15 15 14 13 11 9 8 8 7 7 7 7 8 9 8 8 7 7 7 5 5 5 5 5 5 5 5 5 5 5 5 6 7 8 9 9 8 7
13 14 16 16 16 16 15 14 13 11 10 9 8 7 7 7 8 8 8 7 7 7 6 6 5 4 4 4 4 5 5 5 5 6 6 6 7 8 9 9 10 9 9
12 15 17 17 16 16 15 15 14 12 11 9 8 8 8 8 8 7 7 6 6 6 6 6 5 4 4 3 4 4 4 5 5 6 6 6 6 8 8 9 10 10 10
12 15 17 17 16 16 15 15 14 13 11 10 9 8 8 8 6 6 5 5 5 5 5 5 4 4 3 3 3 4 4 4 5 6 6 6 7 7 9 10 10 10 10
11 14 16 17 17 16 16 16 15 13 12 10 10 9 8 7 5 5 4 4 4 4 4 4 4 3 3 3 3 3 3 4 5 5 5 6 7 7 8 10 11 11 10
10 13 15 16 17 16 16 16 15 14 13 11 10 9 8 6 5 4 4 4 3 3 3 3 3 2 1 1 2 3 3 4 5 5 5 5 6 7 7 9 11 11 11
8 12 15 16 16 15 16 16 15 15 13 12 10 9 7 6 5 4 3 3 2 2 2 2 1 1 1 1 1 1 2 3 4 4 5 5 5 6 7 8 9 11 11
9 11 14 15 16 15 15 15 15 14 13 12 10 8 7 6 5 4 3 2 2 1 1 1 1 1 1 1 1 1 1 2 3 3 4 4 5 6 6 7 8 10 10
10 11 13 14 15 14 15 16 15 14 13 12 10 8 8 7 6 5 4 3 2 1 1 1 2 2 2 2 2 2 1 1 1 2 2 3 4 5 6 7 8 9 10
10 12 13 14 15 15 15 15 15 15 13 12 11 10 9 8 7 6 5 4 3 2 1 2 2 3 3 3 3 2 2 2 1 0 1 2 3 3 4 5 7 7 8
8 12 15 15 15 16 16 16 16 15 13 13 12 11 10 9 8 7 6 5 4 3 2 2 2 3 3 3 3 3 3 3 2 1 1 1 2 2 3 3 4 5 7
7 10 13 15 16 16 16 16 16 15 14 14 13 13 11 10 9 8 7 6 5 4 3 2 2 3 3 3 3 3 3 4 3 3 2 1 1 1 1 2 3 4 5
8 9 14 15 16 15 16 17 16 15 15 15 15 13 12 11 10 9 8 7 6 5 4 3 2 2 2 3 3 3 3 3 3 3 2 2 1 0 1 2 3 3 4
8 9 12 14 15 14 14 15 16 14 14 15 15 14 13 12 11 10 9 8 7 6 5 4 3 2 2 2 2 2 2 1 1 1 1 2 2 2 2 2 3 4 4
7 10 11 14 15 14 13 15 16 15 15 15 15 15 14 13 12 12 11 10 9 8 7 6 5 4 3 3 2 1 1 1 1 1 2 2 2 3 3 3 3 4 5
5 8 11 14 15 15 14 16 16 15 15 15 15 15 15 14 14 13 12 11 10 9 9 8 7 6 6 5 5 4 4 4 4 4 4 4 4 4 5 5 5 6 7

GEFSSE_500_meanwind_108.txt.gz
Wind_Speed
9 10 11 11 10 10 9 9 9 8 8 7 7 6 6 6 5 5 5 5 5 6 6 6 6 5 5 5 4 4 4 4 4 4 5 5 5 6 6 7 7 7 7
10 11 12 13 12 11 10 10 9 8 7 7 6 6 5 5 4 4 4 4 4 4 4 5 5 4 4 4 4 4 4 4 4 5 5 5 6 6 7 7 7 7 7
11 11 13 14 13 13 12 11 10 9 8 7 6 6 5 4 3 3 3 3 3 3 3 4 4 4 4 4 4 4 4 4 4 5 5 5 6 6 7 7 7 6 6
11 13 14 14 14 14 13 12 11 10 8 7 6 5 4 3 3 2 3 3 3 2 3 3 3 3 3 3 3 3 3 4 4 5 5 5 6 7 7 7 7 6 6
12 13 15 16 16 15 14 13 12 11 9 8 6 5 4 3 2 2 2 2 2 2 2 2 2 2 2 2 3 3 3 4 4 5 5 5 6 7 7 7 7 6 6
13 13 15 17 17 16 15 14 13 12 10 9 7 5 4 3 2 1 1 2 2 2 1 1 1 1 1 2 2 3 4 4 5 5 5 5 6 7 7 7 7 7 7
13 13 15 17 17 17 16 15 14 13 11 9 7 6 4 3 2 1 1 1 1 1 1 1 1 1 1 2 2 3 4 5 5 6 6 6 7 8 8 8 8 7 7
13 15 15 17 18 17 17 16 15 13 12 10 8 6 5 3 2 1 0 1 1 1 1 1 0 1 1 2 3 3 4 5 6 6 7 7 7 9 9 9 8 8 7
13 16 17 17 17 18 17 16 16 14 13 10 8 7 5 4 3 1 1 1 1 1 1 1 1 1 2 2 3 4 4 5 6 7 7 8 8 9 10 10 9 9 8
12 15 17 17 18 18 18 17 16 15 13 11 9 7 6 4 3 2 2 2 2 1 1 2 1 1 2 2 3 4 5 6 6 7 7 8 9 10 10 11 11 10 9
12 14 16 17 18 19 18 17 16 15 14 12 10 8 6 5 3 2 2 2 2 2 2 2 2 2 2 3 3 4 5 6 7 7 8 8 9 10 11 11 11 11 10
13 14 15 17 19 20 19 17 17 16 14 12 10 8 7 5 4 3 3 2 2 2 2 2 2 2 2 3 4 4 5 6 7 8 8 9 9 10 11 12 12 12 11
12 14 16 17 18 20 19 18 17 16 15 13 11 8 7 5 4 3 3 2 2 2 2 3 3 3 3 3 4 4 4 5 7 8 8 9 9 10 11 12 12 12 12
12 13 16 18 18 19 19 17 16 15 14 13 11 9 7 5 4 3 3 2 2 2 3 3 3 3 3 4 4 4 4 5 6 7 8 9 9 9 11 11 12 13 12
11 13 16 18 19 20 20 18 17 15 15 13 11 9 7 6 4 4 3 2 2 2 2 3 3 3 3 4 4 4 4 5 6 6 7 8 8 9 9 11 12 12 13
11 13 15 17 18 19 19 18 17 15 15 14 11 9 8 7 5 4 3 2 2 2 2 2 2 2 3 3 3 4 4 4 4 5 6 6 8 8 9 9 11 12 13
11 13 15 17 18 19 19 18 17 16 14 13 11 9 8 7 6 5 4 3 2 2 2 1 1 2 2 2 3 3 3 3 3 4 5 6 7 8 9 9 10 11 13
10 13 15 16 17 19 19 18 17 15 15 13 11 10 8 7 6 5 4 3 3 2 2 1 1 1 1 1 1 2 2 3 3 3 4 5 6 7 7 7 8 10 11
10 12 14 16 17 17 18 18 17 16 14 13 11 10 9 7 7 6 5 4 3 2 2 2 1 1 0 0 0 1 1 2 2 3 4 4 5 6 7 7 7 8 9
8 11 13 15 17 17 17 18 17 16 14 13 11 10 10 8 7 7 6 5 4 3 2 2 1 1 1 1 0 0 0 1 1 2 3 4 4 5 5 6 7 8 9
7 10 13 15 16 16 17 17 16 16 15 14 12 11 10 10 9 8 7 6 5 4 3 3 2 1 1 1 1 1 0 0 0 0 1 2 3 4 4 5 5 6 7
7 9 11 14 15 15 17 17 16 16 16 13 12 11 11 11 10 9 8 7 6 4 4 3 2 2 1 1 1 1 1 1 1 1 1 1 1 2 3 4 5 5 6
6 8 11 13 15 15 16 16 16 16 15 14 12 11 12 11 11 10 9 8 7 5 4 4 3 2 2 1 0 0 1 1 1 1 1 1 1 1 2 3 4 5 6
5 6 10 12 13 15 15 15 15 15 15 15 13 13 13 12 12 12 10 9 8 7 6 5 5 4 3 2 2 2 2 2 2 2 2 2 2 3 3 3 4 5 6
5 6 9 11 13 14 14 14 14 15 15 15 14 14 13 13 13 13 12 11 9 8 7 6 6 5 5 4 4 4 4 4 4 4 4 4 4 5 5 6 6 6 7
5 6 8 11 13 14 15 15 14 15 16 15 14 14 13 13 13 14 13 12 11 10 9 8 8 8 7 6 6 6 6 6 6 6 6 7 7 7 7 8 8 9 9

GEFSSE_500_meanwind_114.txt.gz
Wind_Speed
9 9 9 9 10 10 10 9 8 7 7 6 6 6 5 4 4 3 2 2 2 2 2 1 1 1 1 1 1 2 2 2 2 2 3 3 3 4 4 5 5 6 7
11 11 11 11 11 11 11 10 9 8 7 7 7 6 6 4 3 3 2 2 1 1 1 1 0 1 1 1 1 2 2 2 2 3 3 3 3 4 4 5 6 6 7
12 12 13 13 12 12 11 10 10 9 8 8 7 7 6 5 4 3 2 1 1 1 1 1 1 1 1 1 2 2 2 2 2 3 3 4 4 4 5 6 6 6 6
12 13 14 14 14 14 12 11 11 10 9 8 8 7 6 5 4 3 3 2 1 1 1 1 1 1 2 2 2 2 2 2 3 3 3 4 4 4 5 6 6 6 6
13 14 14 14 15 15 14 12 11 10 10 9 8 7 7 6 5 4 3 2 2 2 2 2 2 2 2 2 3 3 3 3 3 3 3 4 4 5 5 5 5 5 5
13 14 14 15 15 15 14 13 12 12 11 10 9 8 7 6 5 4 3 3 3 3 3 2 2 3 3 3 3 3 3 3 3 3 3 4 5 5 5 5 5 4 4
13 14 15 16 16 16 16 15 14 13 12 11 10 9 8 6 5 4 4 3 3 3 3 2 3 3 4 4 4 4 4 4 4 4 3 4 4 5 5 5 5 4 5
12 14 16 17 17 17 16 16 15 15 13 12 11 10 8 7 6 5 5 4 4 3 3 3 3 3 4 4 4 4 4 5 5 5 4 4 4 5 5 5 5 5 5
12 14 16 17 17 17 18 17 16 15 14 12 11 10 8 7 6 6 5 5 4 3 3 3 3 3 4 4 4 4 5 5 5 5 5 4 5 5 6 5 6 6 5
12 13 15 16 17 17 18 17 17 16 14 13 12 10 9 8 7 6 5 4 4 4 4 3 3 4 4 4 5 5 5 5 5 6 6 5 5 6 6 6 7 7 6
12 14 15 16 17 18 18 18 17 16 15 13 12 10 9 9 8 6 5 5 5 4 4 4 4 4 4 4 5 5 5 5 5 6 6 6 5 6 7 7 8 8 7
11 12 12 14 16 17 18 18 18 17 15 15 13 11 10 9 7 6 5 5 5 5 4 4 4 4 4 5 5 5 5 5 5 6 6 6 5 6 7 7 8 8 8
13 12 12 14 15 16 17 18 17 16 16 15 14 12 10 8 6 5 5 5 5 4 4 4 3 3 4 4 4 5 5 5 6 6 6 6 6 6 7 7 8 9 9
14 13 14 15 15 16 17 18 16 16 15 14 13 10 8 7 6 5 5 4 4 3 3 3 2 3 3 4 4 4 4 5 5 6 6 6 6 6 7 7 8 9 9
15 14 13 14 14 15 17 17 16 16 14 13 12 10 8 7 6 4 4 4 3 3 2 2 2 2 2 3 3 3 3 3 4 5 6 6 6 6 7 7 8 9 10
13 13 13 14 13 14 15 15 15 14 13 12 11 9 8 8 6 4 4 3 3 2 2 1 1 1 2 2 2 2 2 2 3 3 4 5 5 6 6 6 7 7 8
12 11 12 13 13 13 14 14 15 14 13 12 11 10 9 8 7 5 4 4 3 2 1 1 1 1 1 1 1 1 1 1 2 2 2 3 4 5 5 6 7 7 7
11 10 12 11 12 12 13 13 14 14 13 12 11 10 9 8 7 6 5 4 3 2 1 0 1 1 1 1 1 1 1 1 2 2 2 2 2 2 4 5 5 7 7
9 9 9 10 11 11 11 13 14 15 14 12 12 10 9 8 7 7 6 5 4 3 1 0 1 2 2 2 2 2 2 2 2 2 2 2 2 3 3 4 4 5 7
8 7 8 9 10 11 11 12 12 13 13 12 12 11 9 8 8 7 6 5 4 3 2 1 2 2 2 3 3 3 3 2 2 2 3 2 2 3 3 3 3 4 5
6 5 7 8 9 10 11 11 11 11 12 12 12 11 10 9 9 9 8 6 5 4 3 2 2 2 2 3 3 3 3 3 3 3 3 2 3 3 3 3 3 3 4
5 5 5 7 8 9 11 11 11 11 11 11 11 11 10 9 9 10 9 7 6 5 4 2 1 1 1 2 2 3 4 4 4 4 4 3 3 3 3 3 3 3 3
5 4 4 6 8 9 10 10 10 11 11 11 11 11 10 10 10 10 9 8 7 6 5 3 2 0 0 0 1 2 3 3 4 4 4 4 4 3 3 3 3 3 3
6 5 4 5 8 9 9 10 10 11 11 11 12 12 11 10 10 10 10 9 8 7 6 5 4 3 2 2 2 1 2 2 3 3 4 4 4 4 4 4 4 4 4
6 5 4 5 7 8 9 10 10 11 12 12 12 12 11 11 11 11 11 10 9 8 7 7 6 5 4 4 4 4 3 3 4 4 4 4 5 5 5 5 5 5 5
6 5 4 4 6 8 9 10 10 11 11 12 13 13 12 11 11 12 12 11 10 10 9 9 8 7 7 7 6 6 6 6 6 6 6 6 6 7 7 7 7 7 8

GEFSSE_500_meanwind_120.txt.gz
Wind_Speed
2 3 4 4 4 5 5 4 4 4 3 3 3 4 4 4 4 4 4 4 3 3 3 3 3 3 2 2 1 1 1 1 1 1 2 2 3 4 4 5 6 6 7
2 3 4 5 6 6 7 6 6 5 5 4 4 4 5 5 5 5 5 4 4 4 3 3 3 3 3 2 1 1 0 0 1 1 2 2 3 3 4 5 5 6 7
3 4 5 6 7 8 8 8 8 7 7 5 5 5 5 6 6 6 6 5 5 5 4 4 4 3 3 2 2 1 1 1 1 2 2 2 2 2 4 5 5 6 7
4 4 5 7 7 8 9 9 9 8 7 6 6 6 6 6 6 6 6 6 6 5 5 4 4 3 3 3 2 1 1 1 1 2 2 2 2 2 4 5 5 6 6
5 5 5 7 8 9 10 10 10 9 8 7 7 6 6 6 7 7 7 6 6 6 5 5 4 4 3 3 2 2 2 2 2 2 2 2 2 3 4 4 5 6 6
6 6 6 7 8 10 10 11 11 10 9 8 7 7 6 7 7 7 7 6 6 5 5 5 5 4 4 4 3 3 3 2 2 2 2 2 2 3 4 4 5 5 5
7 6 6 8 9 10 11 11 11 11 10 10 8 7 7 7 7 7 7 6 6 6 5 5 5 4 4 4 4 3 3 2 2 2 3 2 2 3 4 4 4 4 4
7 6 6 8 9 10 11 12 12 12 12 11 9 8 7 7 7 7 7 6 6 6 5 5 5 5 4 4 4 4 3 2 2 3 3 3 3 4 4 4 4 5 4
8 6 6 7 9 10 12 12 13 12 12 11 10 9 9 8 8 7 6 6 6 5 5 5 5 4 4 4 4 4 3 3 3 3 3 3 3 4 4 4 5 5 4
8 7 6 8 10 11 12 13 13 13 12 12 11 10 10 9 8 7 7 6 6 6 6 6 5 4 4 3 3 3 3 3 4 4 4 3 4 4 5 5 5 5 5
8 8 8 8 10 11 13 14 14 14 13 12 12 11 10 9 8 8 7 6 6 6 6 5 5 4 3 3 3 3 3 3 3 4 4 4 4 4 5 6 5 5 6
8 7 8 9 10 11 12 14 15 14 13 13 12 11 11 10 9 8 7 6 6 5 5 5 4 4 3 3 3 3 2 3 3 3 4 4 4 5 5 6 6 6 6
7 8 8 10 11 11 12 13 14 14 13 13 12 12 10 10 9 8 7 6 5 5 4 4 4 3 3 2 2 2 2 3 3 3 4 5 5 5 5 6 6 6 7
8 7 8 9 10 11 12 13 14 14 14 14 12 12 11 10 9 8 6 5 4 4 4 4 3 3 2 2 2 2 2 3 3 3 3 4 4 5 5 6 6 6 7
8 8 8 8 10 11 12 14 14 14 14 13 12 12 11 10 9 8 6 5 4 4 3 3 3 2 2 1 1 2 2 2 2 3 4 4 4 5 5 6 6 6 7
8 9 9 10 11 11 12 13 15 15 14 14 13 12 11 11 10 8 6 5 4 4 3 2 2 1 1 1 1 1 1 1 2 2 3 4 4 5 5 6 7 6 6
9 9 9 9 10 9 11 12 14 15 15 15 14 12 12 11 10 9 7 5 5 4 3 2 1 1 1 1 1 1 1 2 2 2 3 3 3 4 5 6 6 7 7
9 7 6 8 8 9 10 11 12 14 14 15 14 13 12 11 10 9 8 7 6 5 3 3 2 2 2 2 2 1 1 1 2 2 2 2 3 3 4 5 6 6 6
7 6 4 6 6 7 9 10 11 13 14 15 14 13 12 11 10 9 9 8 7 6 5 4 3 2 2 2 2 2 2 2 2 2 2 3 3 3 3 4 4 5 5
7 4 3 5 5 7 9 10 12 13 14 15 15 14 13 12 10 10 10 9 8 7 6 5 4 4 3 3 3 4 3 3 3 3 2 3 3 3 3 3 4 4 4
5 2 3 4 5 7 9 10 12 13 15 16 16 16 14 12 11 11 11 10 9 8 7 6 5 4 4 4 4 4 4 4 3 3 3 2 3 3 2 3 3 3 3
4 1 4 4 5 7 8 10 12 13 16 17 17 16 15 13 12 12 12 11 9 9 8 7 6 5 5 4 4 4 3 3 3 3 2 2 2 2 1 2 3 2 3
3 1 2 2 4 7 9 10 11 11 12 15 17 16 15 14 13 13 13 12 10 10 9 8 7 6 5 4 4 3 3 3 3 2 2 2 1 1 0 0 1 2 2
3 2 0 2 4 6 9 10 11 12 13 14 15 16 15 14 14 13 13 12 11 10 10 9 8 7 5 5 4 4 3 3 2 2 2 1 1 1 1 1 1 2 2
3 2 1 2 4 6 8 10 11 12 14 14 14 14 14 14 14 14 13 13 12 11 10 10 9 8 7 6 6 5 5 5 4 3 3 3 3 3 3 3 3 3 4
3 2 1 2 4 6 8 10 11 12 13 14 14 14 14 15 14 14 14 14 13 12 12 11 10 9 9 8 7 7 7 7 6 5 5 5 5 5 4 5 6 6 6

GEFSSE_500_meanwind_126.txt.gz
Wind_Speed
1 2 2 3 3 3 4 4 5 4 5 4 4 5 5 6 6 7 7 7 7 7 7 6 6 6 6 5 4 4 4 4 4 4 5 5 5 5 5 5 6 6 7
1 2 3 4 4 4 4 3 4 3 3 4 3 4 4 4 5 6 7 7 7 7 6 6 6 5 6 5 4 4 4 3 4 4 4 4 5 5 5 5 6 7 7
1 2 4 5 6 5 5 4 3 3 3 3 3 3 3 4 5 6 6 7 7 7 6 6 6 5 5 5 4 4 3 3 3 3 3 4 4 4 4 5 6 7 8
2 3 4 5 6 7 6 5 4 4 3 3 2 2 2 3 4 5 6 6 6 6 6 5 5 5 5 4 4 4 3 2 2 2 3 3 3 4 4 5 6 7 8
3 4 4 5 6 7 7 7 6 5 4 3 2 1 1 2 4 4 5 6 6 6 5 5 5 5 4 4 3 3 2 2 2 2 2 2 3 3 3 4 6 7 7
4 4 5 6 7 8 8 8 7 6 5 4 2 1 0 2 3 4 5 5 6 6 5 5 5 4 4 3 3 2 2 1 1 1 1 2 2 3 4 4 5 6 6
5 5 6 6 8 9 9 9 8 7 6 5 4 3 2 2 2 4 5 5 5 5 5 5 4 4 3 3 2 2 2 1 0 1 1 2 2 3 4 4 5 5 5
5 5 6 7 8 9 10 10 9 9 7 6 5 4 3 2 2 4 5 5 5 5 5 5 4 4 3 3 2 2 1 0 0 1 2 2 2 3 4 4 5 5 5
6 6 6 7 9 10 10 10 10 9 8 7 6 5 4 3 2 3 4 5 5 5 5 5 4 3 3 3 2 1 1 0 1 1 2 2 2 3 4 5 5 5 5
7 6 6 6 9 10 10 9 10 10 9 9 7 6 5 4 3 3 4 4 4 5 6 5 4 3 3 2 1 1 1 0 1 1 2 2 2 3 4 5 5 5 5
9 7 7 7 9 11 11 10 10 11 10 9 8 6 5 4 4 4 3 4 4 5 5 5 4 3 3 2 1 1 1 1 2 2 2 2 3 3 4 5 5 5 6
9 8 8 8 9 11 12 11 11 11 11 10 9 7 6 5 4 4 4 4 4 4 4 4 4 3 2 2 2 1 2 2 2 2 2 3 3 3 4 5 5 5 6
10 9 10 10 11 12 12 12 11 12 12 12 10 9 8 6 5 5 4 4 3 4 4 3 3 3 2 2 2 2 2 2 3 3 3 4 3 4 4 5 6 6 6
11 10 10 10 11 11 12 12 13 13 13 13 11 10 9 7 6 5 5 5 4 3 3 2 2 2 2 1 2 2 2 2 3 3 4 4 4 5 5 6 6 6 7
9 8 9 10 12 13 13 13 13 14 14 13 12 11 10 8 7 6 5 5 4 3 2 2 1 2 2 1 2 2 2 2 3 3 4 4 5 5 6 6 7 7 7
8 7 9 10 12 12 12 13 14 15 15 14 13 12 10 9 8 7 6 5 4 3 2 2 2 2 2 1 1 2 2 2 3 3 4 5 5 6 7 7 7 7 7
10 10 10 10 12 11 12 13 15 16 16 15 14 13 11 10 8 7 6 5 4 3 3 2 2 2 2 1 1 1 1 2 2 2 4 4 5 5 6 7 8 8 8
10 8 8 9 11 11 11 14 16 17 17 16 15 14 13 11 9 8 7 6 5 4 3 2 1 1 1 1 1 1 1 1 1 1 2 3 4 4 4 5 6 7 8
9 6 7 8 10 11 13 14 16 17 17 17 16 15 14 12 11 9 9 7 6 5 3 2 2 2 2 1 1 1 1 1 1 1 1 2 3 4 4 4 5 6 7
7 4 5 7 10 12 14 14 15 16 17 17 16 15 14 13 12 10 9 8 7 6 4 3 3 3 3 2 2 2 2 1 2 2 1 1 2 3 4 4 4 5 6
6 3 3 6 9 12 13 14 14 15 17 17 17 15 15 14 13 11 10 9 8 7 6 5 4 4 3 3 2 2 2 1 1 1 1 0 0 1 2 3 4 4 5
4 2 3 5 8 11 12 14 15 14 15 16 16 15 14 15 14 12 11 10 9 8 7 6 5 5 3 2 2 1 1 1 0 1 0 1 1 1 2 3 4 4 5
3 2 2 5 8 9 11 13 14 13 12 14 14 14 14 14 14 13 12 11 11 9 8 7 6 5 4 3 2 2 2 1 2 2 2 2 2 2 2 2 3 4 5
1 1 2 5 7 8 10 12 13 11 12 14 14 14 14 13 13 14 13 12 11 11 10 9 8 7 6 5 4 4 4 3 3 3 3 4 4 4 4 4 4 5 6
2 2 3 5 6 8 10 12 12 12 12 13 14 14 14 14 14 15 15 13 13 12 11 10 10 9 8 7 6 6 6 6 5 5 6 6 6 6 6 6 6 7 7
2 2 2 4 6 8 9 10 10 11 12 13 14 14 14 14 14 15 15 14 14 13 12 11 11 10 10 9 9 8 8 8 8 8 8 8 9 9 9 9 9 9 9

GEFSSE_500_meanwind_132.txt.gz
Wind_Speed
5 7 7 7 7 7 7 8 9 9 9 9 9 9 9 9 9 8 7 7 7 7 6 6 5 5 5 5 5 5 5 5 6 6 6 6 6 6 5 5 6 7 8
4 6 7 8 8 8 8 7 8 8 8 8 9 9 8 8 7 7 7 7 6 6 5 5 5 5 5 5 5 5 5 5 5 5 6 6 6 6 5 5 6 7 8
3 5 7 8 9 9 9 8 8 8 8 8 8 8 7 7 6 6 6 6 6 5 5 5 4 5 5 5 5 5 4 4 5 5 5 6 6 6 5 5 7 7 8
2 4 6 8 9 10 10 10 8 8 8 8 8 7 6 6 6 6 6 5 5 5 5 4 4 4 5 5 4 5 5 5 4 4 5 5 5 5 5 5 7 8 8
2 4 5 7 9 10 10 11 10 9 8 8 7 7 6 6 5 5 5 5 5 4 4 4 4 4 4 4 4 4 4 4 4 4 4 4 5 5 5 5 7 8 8
2 4 5 7 9 10 10 11 10 10 9 8 7 6 6 6 5 5 4 4 4 4 4 4 3 3 3 4 4 3 4 4 4 4 4 4 5 5 5 6 7 7 7
3 4 5 7 8 10 11 11 11 10 10 9 8 6 5 5 5 4 4 3 3 3 3 3 3 3 3 3 3 3 3 3 4 4 4 4 4 5 5 6 7 7 7
4 5 5 7 8 9 11 12 12 12 11 10 8 7 5 5 5 4 3 3 3 3 3 3 3 3 3 3 3 3 3 3 3 4 4 4 4 5 6 6 7 7 7
6 6 6 7 8 9 11 13 13 12 12 11 9 8 6 6 5 4 3 3 3 2 2 3 3 3 2 2 2 3 3 3 4 4 4 4 4 5 6 7 7 6 6
7 7 7 8 9 10 12 13 13 12 12 11 10 9 8 6 5 4 3 3 2 2 2 3 3 2 2 1 2 2 2 3 4 4 4 4 4 5 6 7 7 6 6
7 8 8 8 10 12 12 13 13 13 13 12 11 10 8 7 6 4 3 3 2 2 2 2 2 2 2 1 1 1 2 3 4 4 4 5 5 5 6 7 7 7 6
8 8 8 9 11 13 13 14 14 14 14 13 11 10 9 7 5 4 3 3 2 1 1 2 2 2 1 1 1 1 2 3 4 4 4 5 5 5 6 7 7 7 7
10 9 9 10 11 13 13 14 15 15 14 13 12 11 9 8 6 5 4 3 3 1 1 2 2 1 1 1 1 1 2 3 3 3 4 4 5 5 6 6 7 7 7
12 10 10 11 12 13 13 14 15 16 15 13 12 11 10 8 6 5 4 4 3 2 1 2 2 1 1 1 1 1 2 2 3 3 4 4 4 5 6 6 6 6 7
12 10 10 11 12 12 14 14 15 16 16 14 13 12 11 9 7 6 5 4 3 3 2 2 2 2 1 1 1 1 1 1 2 3 3 4 4 4 6 6 6 6 7
10 9 10 11 13 13 13 14 14 16 16 15 14 13 12 10 8 7 6 5 3 3 3 2 2 2 2 2 1 1 1 1 2 2 3 4 4 4 5 6 6 6 7
9 9 8 10 12 12 13 14 14 16 17 16 15 14 13 11 9 8 6 6 4 4 3 3 2 2 2 2 2 1 1 1 1 2 2 4 4 5 5 6 6 6 6
9 9 8 9 12 13 13 14 15 16 16 16 15 14 13 11 10 9 8 6 5 4 4 4 3 3 2 2 2 2 2 1 1 2 2 2 3 4 4 5 5 6 6
10 9 9 9 12 13 13 14 15 16 16 16 16 15 13 12 11 10 9 7 6 5 5 4 4 3 3 2 2 2 2 1 1 1 1 1 1 3 3 4 4 4 5
9 8 8 10 11 13 13 14 15 16 16 16 16 15 14 13 12 11 10 9 7 7 6 5 5 4 4 3 3 2 2 2 1 1 0 0 0 1 2 3 3 4 4
8 7 6 8 9 11 12 14 15 15 16 16 16 15 15 14 13 12 11 10 9 8 8 7 6 5 4 4 3 3 2 2 1 1 1 0 0 0 1 1 2 3 4
7 5 4 5 8 11 12 13 13 14 15 15 15 16 15 14 13 12 12 11 9 9 9 8 7 6 5 4 4 3 3 2 1 1 1 1 1 1 1 2 3 4 5
6 4 3 4 7 10 11 12 13 13 14 14 14 14 15 14 13 13 12 11 10 10 10 9 7 7 6 5 4 4 3 3 3 2 2 2 2 2 3 4 4 5 5
5 3 2 3 6 8 10 11 12 12 13 14 14 14 14 14 13 13 12 12 12 11 11 10 9 8 8 7 6 6 5 5 4 4 4 4 4 5 5 6 6 6 6
5 3 2 2 5 7 9 11 12 12 13 13 13 13 14 14 13 13 12 12 13 12 12 11 11 10 9 9 8 7 7 7 7 6 6 6 7 7 7 7 8 8 9
3 2 2 2 3 5 8 9 10 12 12 12 13 14 14 14 14 14 13 13 13 13 13 13 12 12 11 10 10 9 9 9 9 9 9 9 10 9 9 10 10 10 11

GEFSSE_500_meanwind_138.txt.gz
Wind_Speed
2 3 5 6 6 6 6 6 7 7 7 6 6 6 5 5 4 4 4 4 4 4 4 4 3 3 3 3 4 4 4 4 4 4 4 4 4 4 4 5 5 5 6
3 3 4 5 6 6 6 7 7 7 7 7 6 6 5 5 4 4 3 3 3 4 4 3 3 3 3 3 3 3 3 3 4 4 3 3 4 4 4 4 5 5 6
3 4 5 6 7 7 8 8 7 8 7 7 7 7 6 5 5 4 3 3 3 3 3 3 3 3 3 3 2 2 3 3 4 3 3 3 4 4 4 4 4 5 6
4 4 5 6 7 8 8 8 8 8 8 8 7 7 6 5 4 3 3 3 3 3 3 2 2 2 3 2 2 2 2 3 3 3 3 3 4 4 4 4 4 5 6
4 5 6 7 7 8 9 9 8 8 8 8 7 7 6 5 4 3 3 3 3 3 2 2 2 2 2 2 2 2 2 3 2 2 2 3 4 3 3 4 4 5 5
4 5 6 7 8 9 9 10 10 9 10 9 8 7 6 5 4 3 3 3 3 2 2 2 2 2 2 2 2 2 2 3 3 2 2 3 3 3 3 3 4 4 4
4 5 6 7 8 9 10 10 10 10 10 9 8 7 6 5 4 4 4 3 2 2 2 1 2 2 2 2 2 1 2 2 2 2 2 2 2 3 3 3 3 4 4
5 5 6 7 7 8 9 10 10 11 11 9 8 7 6 5 4 4 3 3 2 2 2 2 2 2 2 2 2 2 2 1 2 2 2 2 2 2 3 3 3 3 3
6 6 7 7 8 8 9 10 11 11 11 10 9 8 7 6 5 4 4 3 2 2 2 2 2 2 2 2 1 1 1 1 2 2 2 2 2 2 2 2 3 3 3
8 7 7 7 8 9 10 10 12 12 12 11 10 9 8 7 6 5 4 4 3 2 2 2 2 2 2 1 1 1 1 1 2 2 2 2 2 2 2 2 2 3 3
9 8 7 8 8 9 10 11 12 12 12 11 10 9 9 8 6 5 5 4 3 3 2 2 2 2 2 1 1 1 1 2 2 2 2 2 2 2 2 2 2 3 3
10 9 8 9 8 9 10 10 11 12 12 11 11 10 9 8 7 6 5 4 4 3 3 2 2 2 1 1 0 0 1 2 2 2 2 2 2 2 3 3 3 3 3
12 11 9 9 9 9 10 10 11 12 12 12 11 10 9 8 7 6 5 4 4 3 3 2 2 2 1 1 1 1 1 1 2 1 2 2 2 2 3 3 3 3 3
14 13 11 9 9 9 10 10 12 12 13 12 11 11 10 8 7 6 5 5 4 4 3 3 2 2 2 2 1 1 2 2 2 2 2 2 2 2 3 3 3 3 4
16 15 12 11 11 10 10 10 11 12 12 11 10 11 9 8 7 6 5 5 4 3 3 2 2 2 1 1 2 2 2 2 1 1 2 2 2 3 3 3 3 3 4
18 16 14 12 11 10 11 10 10 11 12 11 10 11 10 9 7 6 5 5 4 3 3 3 2 2 1 2 2 2 2 2 1 0 1 2 2 2 3 4 3 3 3
17 15 12 10 10 10 11 11 10 10 12 11 11 11 10 9 8 7 6 5 4 3 3 3 2 2 1 2 2 2 1 1 1 0 0 0 1 2 3 3 4 4 4
17 13 10 9 8 8 9 10 10 11 11 12 11 12 10 10 9 8 7 6 4 4 3 3 2 1 1 1 1 1 1 1 1 1 1 0 0 1 2 3 4 3 4
15 11 8 7 7 7 8 8 10 11 11 11 12 12 12 11 10 9 8 7 5 4 4 4 3 2 1 1 0 0 1 1 1 1 1 0 1 0 1 2 3 3 3
13 9 7 6 7 8 8 8 9 10 10 11 12 12 13 12 11 10 9 8 7 6 5 4 3 3 2 1 0 0 0 1 1 1 1 1 1 1 1 0 1 2 3
11 8 6 5 5 6 8 8 10 10 10 11 12 12 13 12 11 11 10 9 8 7 6 5 5 4 3 2 1 1 1 1 0 0 1 1 1 1 1 1 1 2 3
10 8 6 3 4 5 7 8 10 11 10 11 11 12 13 12 12 12 10 9 9 8 7 7 6 5 5 4 3 3 2 2 1 1 1 1 1 2 2 3 3 3 4
9 7 5 3 3 5 6 8 9 10 10 10 11 12 12 12 13 13 12 10 9 9 8 8 8 7 6 6 5 4 4 3 3 2 2 2 2 2 3 3 4 4 5
8 6 5 4 3 4 5 6 8 9 10 11 10 11 11 12 13 12 12 11 10 10 9 9 9 9 8 7 6 6 6 5 4 4 4 4 4 4 5 5 5 6 6
7 6 5 3 3 3 3 5 8 9 10 10 10 11 12 13 13 13 13 12 11 11 10 10 10 10 10 9 8 8 8 7 7 6 6 6 6 7 7 7 8 8 8
6 5 5 4 3 2 3 4 6 8 9 10 10 11 12 12 13 14 14 14 13 12 12 12 11 12 11 11 11 10 10 10 9 9 9 9 9 9 10 10 11 11 11

GEFSSE_500_meanwind_144.txt.gz
Wind_Speed
2 2 2 2 3 3 2 2 2 1 1 2 3 3 3 3 3 2 2 2 2 1 1 1 2 2 2 2 2 2 3 3 3 4 4 4 4 4 4 5 6 6 6
2 2 1 1 2 2 2 2 2 1 1 2 3 3 3 3 3 3 3 2 2 2 1 1 1 1 1 1 2 2 2 3 3 3 3 3 3 4 4 5 5 6 6
2 1 1 1 2 2 3 3 2 2 3 3 4 4 4 4 4 4 3 2 2 2 2 1 1 1 1 1 1 2 2 3 3 3 3 3 4 4 4 4 5 6 6
2 1 0 1 2 3 3 3 3 3 3 3 4 4 4 4 4 4 3 3 2 2 2 1 1 0 0 1 1 2 2 3 2 2 2 3 4 4 4 4 5 5 6
3 1 0 2 3 4 4 4 4 4 4 4 4 5 4 4 4 4 4 3 3 2 2 2 1 0 0 1 1 1 2 2 2 2 3 3 3 3 4 4 5 5 6
4 2 1 2 3 4 5 5 5 5 5 5 4 5 4 4 4 4 4 3 3 3 3 2 1 1 1 1 1 1 1 1 1 2 3 3 3 3 3 4 4 5 5
5 3 2 3 4 4 5 6 6 6 6 5 4 4 4 4 4 4 4 4 3 3 3 2 1 1 1 1 1 1 1 1 1 2 2 2 3 3 3 4 4 4 5
6 4 3 4 5 6 6 6 6 6 6 5 5 5 5 4 4 4 4 4 4 3 3 2 1 1 1 1 1 0 1 1 1 2 2 2 3 3 4 4 4 4 4
7 6 4 4 5 6 6 6 7 7 6 6 5 5 5 4 3 3 4 4 4 3 3 2 1 1 1 1 1 1 1 1 1 1 2 3 3 4 4 4 4 4 4
8 6 5 4 5 5 6 6 7 7 7 6 6 6 5 4 4 4 4 4 3 3 3 2 1 1 1 1 1 1 1 1 1 1 2 3 3 4 4 4 4 4 4
8 7 5 4 4 6 6 6 7 8 8 7 7 7 6 5 5 4 4 4 3 3 3 2 1 1 1 0 1 1 1 2 2 1 2 2 3 4 4 4 4 4 4
9 8 6 5 5 5 7 7 8 9 9 9 8 8 7 6 5 5 4 4 3 3 2 2 1 1 1 1 1 1 2 2 2 2 2 2 3 3 3 3 4 4 4
10 9 8 7 6 6 7 8 9 9 9 9 9 9 8 7 6 5 5 4 4 3 2 2 1 1 1 1 1 2 2 2 2 1 1 1 2 3 3 3 3 3 3
11 10 9 8 6 6 7 8 9 9 9 10 10 10 9 8 6 6 6 5 4 3 3 2 2 1 1 1 1 2 1 2 2 1 1 1 2 3 3 3 3 3 3
11 10 8 8 6 6 7 8 9 10 10 10 10 10 9 8 7 7 6 5 4 3 2 2 2 1 1 2 1 1 1 2 2 1 2 2 3 3 4 3 3 3 4
13 11 9 7 6 6 7 7 9 10 10 10 10 9 8 8 8 7 7 6 4 3 3 2 2 1 2 2 2 2 1 2 1 1 2 2 3 3 4 4 4 3 4
14 12 10 8 7 6 6 7 8 10 10 10 10 9 9 8 8 8 7 6 5 4 3 3 3 2 2 3 3 2 1 2 1 1 1 2 2 2 3 4 4 4 4
14 12 10 7 6 5 5 6 7 9 10 10 10 10 10 9 9 9 8 7 6 5 4 4 3 3 3 3 3 2 2 1 1 1 1 1 1 2 3 4 4 5 5
14 11 7 4 4 5 5 5 8 9 10 11 11 11 10 10 10 10 9 8 7 6 5 5 4 3 3 3 3 3 2 1 1 0 0 0 1 2 2 2 3 4 4
12 10 6 4 3 4 4 5 7 9 10 11 12 11 11 11 11 10 9 8 8 7 6 6 5 4 4 4 3 3 2 1 0 0 0 0 1 1 1 2 2 3 4
10 7 6 3 3 3 3 4 6 8 9 11 11 12 12 12 12 11 11 10 8 8 7 6 6 5 5 4 4 4 3 2 2 2 1 1 1 1 1 2 2 3 3
10 7 4 2 2 2 3 4 5 7 8 9 11 11 12 12 12 12 12 11 9 8 7 7 7 7 6 6 5 4 4 4 4 3 2 2 2 2 2 2 3 4 5
9 7 4 1 1 2 4 4 5 6 8 9 10 11 12 12 12 12 12 12 11 9 9 8 8 8 7 7 6 6 6 6 5 5 4 3 3 3 3 4 4 5 5
8 5 2 0 1 2 4 4 6 6 8 9 10 12 12 13 12 12 12 12 11 11 10 9 9 9 9 8 8 8 8 7 7 6 6 5 5 5 5 5 5 6 6
6 4 3 1 1 2 3 5 6 7 8 9 10 11 12 12 12 13 13 13 12 11 11 11 10 10 10 10 9 9 9 9 9 9 8 8 7 7 7 8 8 8 8
5 4 3 2 1 2 3 4 5 7 8 9 10 11 12 12 12 14 14 14 13 13 12 12 11 11 11 11 11 10 11 11 11 11 11 10 10 9 10 10 10 10 11

GEFSSE_500_meanwind_150.txt.gz
Wind_Speed
5 4 3 3 4 5 6 7 8 8 7 7 7 7 7 7 7 6 6 6 6 6 5 5 4 4 4 4 3 4 4 4 4 4 4 5 5 5 6 6 7 7 7
4 3 3 3 4 5 5 6 7 7 7 6 6 6 6 6 6 6 6 6 5 5 5 5 5 4 4 4 4 3 3 3 4 4 4 4 5 5 6 6 6 6 7
4 3 3 3 4 4 5 5 5 5 5 5 5 6 5 5 5 5 5 5 6 6 6 5 5 4 4 4 3 3 3 3 4 3 4 4 5 5 6 6 6 6 7
4 2 2 3 2 3 3 3 4 4 4 5 5 5 5 5 5 5 5 5 6 6 5 5 5 4 4 4 3 3 3 3 3 3 3 4 4 4 5 5 6 6 7
4 2 1 2 2 1 2 2 3 2 3 3 4 4 4 4 4 5 5 5 5 5 5 5 4 4 3 3 3 2 3 3 2 3 3 3 3 4 4 5 5 6 6
4 3 1 1 1 0 1 1 1 1 2 2 2 3 3 3 3 4 4 4 5 5 4 4 4 3 2 2 2 2 2 2 2 2 3 3 3 3 3 4 5 6 6
4 3 1 0 1 2 2 2 1 1 1 1 1 2 2 3 3 3 3 3 4 4 4 4 4 3 2 2 2 2 2 2 2 3 3 3 3 3 3 4 4 5 5
5 3 2 1 1 2 3 3 2 2 2 1 1 1 1 2 2 2 3 3 4 4 4 4 3 3 2 2 2 2 2 2 2 2 2 2 3 3 3 3 3 4 5
7 5 3 2 2 3 3 4 3 3 3 3 2 1 0 1 1 2 2 2 3 4 4 4 3 3 2 2 2 2 2 2 2 2 2 2 2 2 3 3 3 3 4
8 6 5 3 2 3 4 5 5 4 4 4 3 2 1 1 1 1 1 1 2 3 3 4 3 3 2 2 2 2 2 2 2 2 2 2 2 2 2 3 3 3 3
8 6 5 4 3 3 4 5 6 5 5 5 4 3 2 2 2 1 1 1 2 2 3 3 3 3 2 2 2 2 2 2 3 2 2 2 2 2 2 2 2 3 3
9 7 6 4 4 3 4 5 6 6 6 6 6 5 4 3 2 1 1 1 1 1 2 2 2 2 2 2 2 2 1 2 2 2 2 2 2 2 2 2 2 2 3
10 8 6 5 4 3 4 5 6 6 6 7 7 6 5 4 3 2 2 1 1 0 1 1 2 2 2 1 1 1 1 1 1 2 1 2 2 2 2 2 2 2 2
11 9 7 6 5 4 4 5 6 7 7 7 7 6 6 5 4 3 2 1 1 1 0 0 1 1 1 1 1 0 1 1 1 1 1 1 1 1 1 2 2 2 2
12 9 7 6 6 5 5 5 6 8 8 8 8 7 6 6 5 4 3 2 2 2 1 1 0 1 1 1 1 1 1 1 1 1 1 0 1 1 1 1 2 2 3
12 10 9 7 6 5 5 5 6 7 9 9 8 7 7 6 5 5 4 4 3 2 2 1 1 0 1 0 1 1 1 1 1 0 0 0 0 1 1 2 2 3 3
12 11 9 7 5 5 6 6 7 7 9 9 9 8 7 7 6 6 5 5 4 3 2 2 2 1 0 0 0 0 1 1 1 0 0 0 1 1 2 2 2 3 4
12 11 8 6 5 5 6 6 7 8 9 10 10 9 8 8 7 7 6 6 6 4 3 2 2 2 1 1 1 0 1 1 1 1 0 1 1 1 2 2 3 3 4
12 11 8 6 6 6 6 6 7 8 9 10 10 10 9 9 8 7 7 7 7 5 5 3 2 2 2 1 1 1 0 0 0 1 1 1 1 2 2 3 3 4 4
12 10 8 5 6 6 6 6 7 7 8 9 10 10 10 9 8 8 8 8 7 7 6 4 3 3 3 2 2 2 1 1 1 1 1 1 2 2 2 2 3 4 4
12 10 6 3 2 3 4 5 6 7 7 9 10 10 10 10 9 9 9 9 8 8 7 6 5 5 5 4 3 3 3 2 2 2 2 2 2 2 3 3 4 4 5
11 9 5 2 3 3 3 4 5 6 7 8 9 10 10 9 9 10 11 10 9 8 8 7 6 6 6 5 5 5 4 4 4 4 3 3 3 3 4 4 5 5 5
10 7 4 2 3 4 4 4 5 6 7 8 9 10 11 11 10 10 10 11 11 10 9 8 7 7 7 7 7 7 7 6 6 6 5 5 5 5 5 5 6 6 7
8 6 3 1 2 4 5 5 5 6 6 8 8 9 10 11 11 11 11 11 11 11 10 10 9 9 8 9 9 9 8 8 8 7 7 8 7 7 7 7 8 8 9
7 5 2 0 1 3 5 5 6 6 7 7 8 9 11 11 11 11 11 11 11 11 11 11 11 10 10 10 10 10 10 10 10 10 10 10 10 10 10 10 10 10 10
6 4 2 1 1 2 3 4 5 6 7 8 9 10 10 11 11 11 11 11 11 12 12 12 13 12 12 12 12 12 12 13 13 12 12 13 13 13 13 13 13 13 13

GEFSSE_500_meanwind_156.txt.gz
Wind_Speed
8 8 7 6 6 6 7 8 8 9 9 10 9 9 9 8 8 8 8 8 7 7 6 6 5 5 4 4 4 4 4 5 5 5 5 5 5 6 6 6 6 6 7
7 7 6 6 6 6 6 7 7 8 8 9 9 8 8 8 8 7 7 7 7 6 6 6 5 4 4 5 4 4 4 5 5 5 6 6 6 6 6 6 6 6 6
6 6 6 6 5 5 6 7 7 7 7 8 8 8 7 7 7 7 7 6 6 6 5 5 4 4 4 5 4 4 5 5 5 5 6 6 5 6 6 6 6 6 6
6 5 5 5 5 5 6 6 6 6 7 7 7 7 7 7 6 7 6 6 6 5 5 5 4 4 4 5 5 5 5 5 5 5 5 5 5 5 5 6 6 6 6
5 5 4 4 4 4 5 6 6 6 6 6 6 6 6 6 6 6 6 6 6 5 5 5 4 4 4 5 4 4 4 4 5 5 5 5 5 5 5 5 5 6 6
4 4 3 3 3 4 4 5 6 6 6 6 6 6 6 6 5 5 5 5 5 5 5 5 4 4 4 4 4 4 4 4 4 5 4 4 4 4 4 4 5 6 6
4 2 2 2 3 3 4 5 5 5 6 6 6 6 6 5 5 5 5 5 5 5 5 5 4 4 4 4 4 4 4 4 4 4 4 4 4 4 4 5 5 5 5
5 3 1 1 2 3 4 5 5 5 5 6 6 5 5 5 4 4 4 4 5 5 5 5 5 4 4 4 4 5 5 4 4 4 4 4 4 3 4 4 4 4 4
6 4 2 1 2 4 5 5 5 5 6 6 6 5 5 4 4 4 4 4 5 5 5 5 5 5 4 4 5 5 5 4 4 4 3 4 4 4 4 3 4 4 4
7 5 3 1 2 3 4 5 6 6 6 6 5 5 5 4 3 3 4 4 5 5 5 5 5 5 5 4 4 5 4 4 4 4 4 4 4 4 4 3 3 4 4
7 5 3 2 2 3 5 6 7 6 6 6 5 5 5 4 3 3 4 4 5 5 5 5 5 5 4 4 4 4 4 4 4 4 4 3 3 3 3 3 3 3 3
8 6 4 2 2 3 4 6 7 6 7 7 6 6 5 4 3 3 3 4 4 4 4 4 4 4 4 4 4 4 4 4 4 4 4 3 3 3 3 3 3 3 3
8 7 5 3 3 3 4 5 6 6 7 7 7 6 5 5 4 4 3 4 4 3 3 3 4 4 4 3 3 3 3 3 3 3 3 3 3 2 2 2 2 2 2
8 7 5 4 3 4 4 5 6 7 7 8 8 7 6 5 5 4 3 4 4 4 3 3 3 4 4 3 3 3 3 3 3 3 3 2 2 2 2 2 2 2 2
8 7 6 4 3 4 5 5 6 7 8 8 8 7 7 6 6 5 4 4 4 4 3 3 3 3 3 3 3 3 3 2 2 3 2 3 3 2 1 1 2 2 2
8 7 7 5 4 4 5 6 7 7 8 8 8 7 7 7 6 6 5 5 4 4 4 3 2 3 3 3 3 3 3 2 2 2 2 2 2 1 1 1 1 2 2
8 7 7 6 5 6 6 6 7 7 9 8 8 8 7 7 6 6 6 5 5 4 4 3 3 3 3 3 3 3 2 2 2 2 1 1 1 1 1 1 2 2 2
9 8 8 7 6 6 5 5 6 7 8 8 8 8 8 8 7 6 6 6 5 5 5 4 4 3 2 2 2 2 2 1 1 1 1 1 1 1 1 2 2 2 2
10 9 9 8 6 6 5 5 6 6 7 8 8 8 9 9 8 7 6 6 6 5 5 5 4 3 2 2 1 1 1 1 1 1 0 0 1 2 2 2 2 3 3
11 10 9 8 7 6 7 6 7 7 7 8 8 9 9 9 8 7 7 6 7 6 7 6 4 4 3 2 2 2 1 1 0 0 1 1 2 2 3 3 3 4 4
12 10 8 7 6 6 7 7 7 7 7 7 8 9 9 9 8 7 7 7 7 7 7 7 6 5 4 4 3 3 3 3 2 2 2 2 3 3 4 4 4 5 5
12 10 9 7 6 6 6 6 7 8 7 8 8 8 9 9 8 8 8 8 8 8 8 7 7 6 5 5 5 5 4 4 4 4 4 4 4 5 5 5 5 6 7
11 10 9 6 5 6 6 6 7 8 7 8 8 9 9 9 9 9 9 8 8 8 8 8 8 8 7 7 6 6 6 6 6 6 6 6 6 6 6 7 7 8 8
12 10 8 4 4 5 5 6 7 7 7 8 9 8 8 9 10 10 10 10 9 9 9 9 9 9 9 8 8 8 8 8 8 8 8 8 8 8 9 9 10 10 10
10 9 7 4 4 5 5 6 7 7 7 7 8 8 8 9 10 11 10 10 10 10 10 10 10 10 10 9 9 9 10 10 10 10 10 10 11 11 11 11 12 13 13
9 8 5 2 2 3 4 5 6 6 6 6 7 8 8 8 9 10 11 11 10 10 10 11 11 11 11 11 11 11 12 12 13 13 13 13 14 14 14 15 15 15 16

GEFSSE_500_meanwind_162.txt.gz
Wind_Speed
5 5 5 4 3 3 2 3 3 3 4 5 4 4 5 5 5 5 5 5 5 5 5 5 5 5 5 4 4 4 4 4 3 3 4 5 5 5 5 6 6 6 6
4 4 4 3 2 1 1 1 1 2 3 3 3 3 4 4 5 5 5 5 5 5 5 5 5 5 4 4 4 3 3 3 4 4 5 5 5 5 5 6 6 6 6
4 3 3 2 1 1 1 0 1 1 1 2 2 2 3 4 4 5 4 4 4 4 4 4 4 5 5 4 4 4 4 4 4 4 5 5 5 5 5 5 5 6 6
3 2 2 1 1 0 1 1 1 1 1 2 2 2 2 3 3 4 4 4 4 4 3 4 4 4 4 4 3 4 4 4 4 4 4 4 5 5 5 4 5 5 5
2 2 1 1 0 1 1 2 2 2 1 1 2 2 2 2 3 3 3 3 3 3 3 3 4 4 4 3 3 3 4 4 4 4 4 5 5 5 5 5 5 5 5
2 1 0 0 1 1 2 3 2 2 1 1 2 2 1 2 2 2 2 3 3 3 3 3 3 3 3 3 3 3 4 4 4 4 5 5 5 5 4 5 5 5 5
2 1 1 1 2 2 3 3 3 2 2 2 1 1 1 1 1 2 2 3 3 3 3 3 3 2 2 3 3 3 3 4 4 4 4 5 5 5 4 4 5 6 6
4 2 2 3 3 3 4 4 3 3 3 2 2 2 1 1 1 1 1 2 2 3 3 3 3 3 3 3 3 4 4 4 4 3 4 4 4 4 4 5 5 5 5
6 4 3 3 3 4 4 4 4 4 3 3 2 2 2 1 1 1 1 1 2 3 3 3 3 3 4 4 4 4 4 4 4 3 4 4 4 4 4 4 4 4 4
7 5 4 4 4 4 5 5 5 4 4 3 3 3 2 2 1 1 1 1 2 2 3 3 3 4 4 4 4 4 5 5 4 4 4 4 4 4 3 4 4 3 3
8 6 6 4 4 4 5 5 5 5 4 4 4 3 3 2 2 1 1 1 2 2 3 3 3 3 4 4 5 5 5 5 4 5 5 5 4 4 3 3 3 3 3
9 8 6 5 4 5 5 5 5 5 5 5 5 4 4 3 2 2 1 1 2 2 2 3 3 3 3 4 4 4 5 4 4 4 4 4 4 4 3 3 3 2 2
10 10 8 6 5 5 5 5 5 6 6 6 6 5 5 4 3 3 2 1 2 2 2 2 2 3 3 4 4 4 4 4 4 4 3 3 3 3 3 3 2 2 2
12 11 10 7 7 6 5 5 5 6 6 6 6 5 5 4 3 2 2 2 2 2 2 2 2 3 3 3 3 3 3 4 3 3 3 3 3 3 2 2 2 1 1
12 11 10 9 8 7 5 5 5 6 6 6 5 5 4 4 3 3 2 2 2 2 2 2 2 3 3 3 3 3 3 3 3 2 2 2 2 2 1 1 1 0 1
13 12 10 10 9 8 6 5 6 5 6 6 5 5 4 4 3 3 3 3 3 3 2 2 3 3 2 3 3 3 2 2 3 2 2 1 1 1 1 1 1 1 1
14 12 11 11 10 9 7 6 5 5 5 5 5 5 4 4 4 4 4 3 3 3 3 2 2 2 2 2 2 2 2 2 3 2 2 1 1 0 0 1 1 2 2
14 12 12 11 10 9 8 6 5 5 5 5 5 5 5 4 5 5 4 4 4 4 3 2 2 2 2 2 1 1 1 1 1 1 1 1 0 0 1 1 1 2 2
14 13 12 11 10 9 8 6 4 5 4 5 6 6 6 5 5 5 4 5 4 4 4 3 3 2 2 2 1 0 0 0 1 1 0 0 1 1 1 1 2 2 2
15 15 14 12 10 9 7 6 5 4 4 4 5 6 7 6 6 6 5 5 5 5 4 4 3 3 2 2 2 2 2 2 2 1 1 1 2 2 2 3 3 3 4
16 16 14 14 11 9 7 6 5 5 4 4 5 6 6 6 7 7 6 5 5 5 5 5 4 4 4 4 3 3 3 3 3 3 3 3 3 3 3 4 4 5 6
17 16 15 13 11 9 7 6 5 5 5 4 5 6 6 6 7 7 6 6 6 6 6 6 5 5 5 5 5 5 5 5 5 5 5 6 5 5 5 5 6 6 6
17 16 15 12 10 6 6 5 5 4 4 4 5 6 6 6 7 7 8 7 7 7 7 7 6 6 7 7 7 7 6 6 7 6 7 7 8 8 7 7 7 8 8
17 16 13 11 8 4 4 5 4 4 5 5 5 6 6 7 7 8 9 9 9 8 8 8 8 8 8 8 9 9 8 8 8 8 8 8 9 10 10 9 10 10 10
16 14 11 10 6 4 2 3 4 4 5 5 5 6 7 7 7 8 8 9 10 10 9 9 9 10 10 10 10 10 10 10 10 10 11 11 11 12 12 12 13 13 13
15 13 11 9 6 4 3 3 4 4 5 5 5 6 7 7 7 7 7 9 10 10 10 10 11 10 11 12 12 12 12 13 13 13 13 13 13 14 14 15 16 16 16

GEFSSE_500_meanwind_168.txt.gz
Wind_Speed
7 7 6 6 6 5 5 5 5 4 4 3 3 3 3 3 3 3 3 3 3 3 3 3 3 3 3 3 3 3 4 4 5 5 6 6 6 6 6 6 6 7 7
6 6 6 5 5 5 5 5 4 4 4 3 2 2 2 2 2 2 2 2 2 2 3 3 3 3 3 3 3 4 4 4 5 5 6 6 7 7 7 7 7 7 7
6 5 5 5 4 4 4 4 4 4 4 3 2 2 2 2 2 2 2 2 2 2 2 3 3 3 3 3 4 4 4 5 5 6 6 7 7 6 6 7 7 7 7
5 5 4 4 3 3 4 4 4 4 3 3 2 2 1 1 1 2 2 2 2 2 2 2 2 3 3 3 3 4 4 5 6 6 6 6 6 6 7 7 6 6 7
5 4 4 3 3 3 3 4 3 3 3 2 2 2 1 1 1 1 2 2 2 2 2 2 2 3 3 3 3 4 4 5 6 6 6 6 7 7 7 7 6 7 7
5 4 3 2 2 2 3 3 3 3 2 2 2 2 2 1 1 2 2 3 2 2 2 2 2 3 3 3 3 4 4 4 5 6 7 7 7 6 6 6 7 7 6
6 5 3 2 2 2 2 2 2 2 2 2 2 2 2 1 1 2 2 3 3 3 2 2 2 2 3 3 4 4 4 4 4 6 6 6 6 6 6 7 7 7 6
7 6 5 3 2 2 1 1 1 1 2 2 2 2 2 2 1 2 2 3 2 3 2 2 2 3 3 3 3 4 4 4 5 5 6 5 5 5 6 6 6 6 6
8 7 6 5 3 2 1 1 1 1 1 1 1 1 1 1 1 1 2 2 2 2 2 3 3 3 3 3 3 4 4 5 5 5 5 5 5 5 6 6 6 6 6
9 8 6 5 4 2 1 1 1 1 1 1 0 0 1 1 1 1 1 1 2 2 2 3 3 4 4 4 4 4 4 5 5 5 5 5 5 5 5 5 6 6 5
10 8 7 6 5 3 2 1 1 1 1 2 1 1 1 1 1 1 1 2 2 2 2 3 3 4 4 4 4 4 4 4 5 5 4 4 5 5 5 5 5 5 5
11 10 9 7 6 4 2 2 2 2 2 2 2 2 2 1 1 0 1 1 2 2 2 3 3 3 3 3 3 4 4 4 4 4 4 4 4 4 4 4 5 4 4
12 11 10 8 6 5 4 3 3 2 2 2 3 2 2 2 1 0 1 1 1 2 2 2 2 3 3 3 3 3 3 3 3 4 4 3 3 4 4 4 3 3 3
12 11 10 9 7 6 5 3 2 2 2 2 3 3 2 2 2 1 1 1 1 1 1 2 2 3 3 3 3 2 2 2 2 3 3 3 3 3 3 2 2 2 2
11 10 9 8 7 7 5 4 2 2 2 2 2 3 3 3 3 2 2 2 2 1 1 2 2 2 3 3 2 2 2 1 2 2 2 2 2 2 2 2 2 2 2
11 10 9 8 7 7 6 4 2 1 2 3 3 4 4 4 3 3 3 3 2 1 1 2 2 2 2 2 2 1 1 1 1 1 1 1 1 1 1 1 1 2 2
12 11 10 8 7 6 5 4 2 1 2 3 3 4 4 4 4 4 3 3 2 2 1 1 2 2 2 1 1 1 0 1 1 0 1 1 1 1 1 2 2 2 3
13 12 11 10 8 6 5 4 2 2 3 4 4 4 4 5 5 4 3 3 3 3 2 2 2 1 1 1 1 1 1 1 1 1 1 1 1 1 1 2 2 3 3
13 12 12 11 10 7 5 3 2 2 3 4 4 5 4 5 5 4 4 4 4 3 3 3 3 2 2 2 2 2 2 2 2 2 2 2 2 2 2 2 2 3 3
14 13 12 12 10 7 5 4 1 3 3 4 5 5 5 5 5 5 5 5 4 4 4 4 4 3 3 3 3 3 3 3 3 3 3 3 3 3 4 4 4 4 4
15 14 13 11 9 6 5 3 2 3 4 5 5 5 5 5 5 5 5 5 5 5 4 4 4 4 4 4 4 4 4 4 4 5 5 5 5 5 5 5 5 6 6
16 15 14 11 7 4 4 2 3 4 4 5 5 6 6 6 6 6 6 6 6 6 5 5 5 5 5 5 5 5 5 6 6 7 7 7 7 7 7 7 7 7 8
16 14 13 11 7 4 3 2 3 4 5 6 6 6 5 6 6 6 7 7 7 7 7 6 6 7 7 6 7 7 7 8 8 8 8 8 9 9 9 9 9 9 10
14 12 12 10 6 4 3 2 3 4 5 6 6 5 5 5 6 7 7 7 7 7 7 7 8 8 8 8 8 8 9 9 9 9 9 10 10 11 10 11 12 11 12
14 12 11 10 6 5 3 1 2 3 4 5 5 6 6 7 7 8 8 8 8 8 8 8 8 9 9 9 9 10 10 11 11 11 10 11 11 11 12 13 14 14 14
13 11 10 9 7 6 4 2 0 2 4 5 5 5 6 6 7 8 9 9 10 9 9 9 9 10 10 11 12 12 12 12 12 13 13 13 13 14 15 15 15 16 16